Location: Krasnoyarskiy Pitomnik
(51.1333°N, 71.6167°E)
Time: 14:53:32
(UTC+00:00)

Cosmos 1300 - Pass Details

Date: 22 October 2021
Orbit: 509 x 512 km, 82.5° (Epoch: 27 November)

Event Time Altitude Azimuth Distance (km) Brightness Sun altitude
Rises 13:42:14 0° 187° (S) 2,615 6.4 -15.7°
Reaches altitude 10° 13:44:21 10° 187° (S) 1,733 5.4 -16.0°
Maximum altitude 13:48:09 85° 99° (E) 522 2.6 -16.6°
Drops below altitude 10° 13:51:59 10° 11° (NNE) 1,747 5.3 -17.2°
Sets 13:54:07 0° 11° (NNE) 2,638 6.2 -17.5°
